User: anonymous   Login
Location: Plymouth
(43.7570°N, 71.6890°W)
Time: 14:24:20
(UTC-04:00)
Language:

Cosmos 2016 Rocket - Orbit

View from above orbital plane
View from above orbital plane
View from above satellite
View from above satellite

Ground track
Ground track

The orbit data is extracted from the following two-line orbital elements,

1 19922U 89028B   16145.93551510 +.00000080 +00000-0 +65653-4 0  9993
2 19922 082.9589 354.7964 0035141 252.6435 235.1905 13.77181622363538
Epoch (UTC): 24 May 2016 22:27:08
Eccentricity: 0.0035141
inclination: 82.9589°
perigee height: 948 km
apogee height: 1000 km
right ascension of ascending node: 354.7964°
argument of perigee: 252.6435°
revolutions per day: 13.77181622
mean anomaly at epoch: 235.1905°
orbit number at epoch: 36353

The dashed part of the orbit path shows where the satellite is in the earth's shadow,  

DLR